Weather History for Morrisville, VT

Change the Weather History Date:

Saturday, June 29, 2013

  Actual Average Record
Temperature  
Mean Temperature 71 °F 66 °F  
Max Temperature 80 °F 78 °F 89 °F (2012)
Min Temperature 61 °F 54 °F 46 °F (2001)
Degree Days  
Heating Degree Days 0 2  
Month to date heating degree days 130 123  
Since 1 June heating degree days 130 123  
Since 1 July heating degree days 7663 8254  
Cooling Degree Days 6 3  
Month to date cooling degree days 70 45  
Year to date cooling degree days 90 53  
Since 1 June cooling degree days 70 45  
Growing Degree Days 20 (Base 50)    
Moisture  
Dew Point 62 °F    
Average Humidity 76    
Maximum Humidity 100    
Minimum Humidity 52    
Precipitation  
Precipitation 0.39 in 0.13 in 0.74 in (1950)
Month to date precipitation 8.04 3.85  
Year to date precipitation 20.05 15.47  
Sea Level Pressure  
Sea Level Pressure 29.59 in    
Wind  
Wind Speed 1 mph (West)    
Max Wind Speed 13 mph    
Max Gust Speed 21 mph    
Visibility 8 miles    
Events Rain , Thunderstorm    
T = Trace of Precipitation, MM = Missing Value Source: NWS Daily Summary

Daily Weather History Graph

Daily Weather History Graph

Search for Another Location

Airport:

Trip Planner

Search our weather history database for the weather conditions in past years. The results will help you decide how hot, cold, wet, or windy it might be!

Date:

Astronomy

Jun. 29, 2013 Rise Set
Actual Time 5:08 AM EDT 8:39 PM EDT
Civil Twilight 4:31 AM EDT 9:16 PM EDT
Nautical Twilight 3:43 AM EDT 10:04 PM EDT
Astronomical Twilight 2:40 AM EDT 11:06 PM EDT
Moon No Moon Rise 12:35 PM EDT (6/29)
Length of Visible Light 16h 44m
Length of Day
15h 30m
Waning Gibbous, 56% of the Moon is Illuminated
Jun 29
Waning Gibbous
Jun 30
Last Quarter
Jul 8
New
Jul 15
First Quarter
Jul 22
Full

Hourly Weather History & Observations

Time (EDT) Temp. Heat Index Dew Point Humidity Pressure Visibility Wind Dir Wind Speed Gust Speed Precip Events Conditions
12:54 AM 62.1 °F - 60.1 °F 93% 29.53 in 10.0 mi Calm Calm - 0.00 in   Overcast
1:03 AM 60.8 °F - 60.8 °F 100% 29.53 in 10.0 mi Calm Calm - N/A   Mostly Cloudy
1:43 AM 60.8 °F - 60.8 °F 100% 29.53 in 10.0 mi Calm Calm - N/A   Overcast
1:54 AM 61.0 °F - 60.1 °F 97% 29.53 in 10.0 mi Calm Calm - N/A   Overcast
2:04 AM 60.8 °F - 60.8 °F 100% 29.52 in 10.0 mi Calm Calm - 0.01 in Rain Light Rain
2:47 AM 60.8 °F - 60.8 °F 100% 29.52 in 10.0 mi Calm Calm - 0.01 in Rain Light Rain
2:54 AM 61.0 °F - 60.1 °F 97% 29.52 in 10.0 mi Calm Calm - 0.01 in Rain Light Rain
3:54 AM 62.1 °F - 60.1 °F 93% 29.53 in 10.0 mi Calm Calm - 0.00 in   Overcast
4:47 AM 62.6 °F - 60.8 °F 94% 29.54 in 10.0 mi Calm Calm - N/A   Overcast
4:54 AM 62.1 °F - 60.1 °F 93% 29.54 in 10.0 mi Calm Calm - N/A   Overcast
5:54 AM 61.0 °F - 61.0 °F 100% 29.56 in 10.0 mi Calm Calm - 0.00 in   Overcast
6:54 AM 63.0 °F - 61.0 °F 93% 29.57 in 10.0 mi Calm Calm - N/A   Overcast
7:54 AM 66.0 °F - 61.0 °F 84% 29.57 in 10.0 mi Calm Calm - N/A   Mostly Cloudy
8:49 AM 68.0 °F - 62.6 °F 83% 29.57 in 10.0 mi Calm Calm - N/A   Mostly Cloudy
8:54 AM 68.0 °F - 63.0 °F 84% 29.57 in 10.0 mi Calm Calm - N/A   Mostly Cloudy
9:54 AM 71.1 °F - 63.0 °F 75% 29.56 in 10.0 mi Calm Calm - N/A   Overcast
10:22 AM 71.6 °F - 64.4 °F 78% 29.56 in 10.0 mi Calm Calm - N/A   Overcast
10:31 AM 73.4 °F - 64.4 °F 73% 29.56 in 10.0 mi Variable 4.6 mph - N/A   Overcast
10:54 AM 73.0 °F - 64.0 °F 73% 29.55 in 10.0 mi Calm Calm - N/A   Mostly Cloudy
11:54 AM 77.0 °F - 64.9 °F 66% 29.54 in 10.0 mi WSW 3.5 mph - N/A   Partly Cloudy
12:54 PM 78.1 °F - 63.0 °F 60% 29.54 in 10.0 mi Variable 4.6 mph - N/A   Mostly Cloudy
1:54 PM 79.0 °F - 59.0 °F 50% 29.53 in 10.0 mi WSW 8.1 mph 18.4 mph N/A   Clear
2:54 PM 80.1 °F 81.2 °F 62.1 °F 54% 29.53 in 10.0 mi Variable 6.9 mph - N/A   Partly Cloudy
3:50 PM 78.8 °F - 60.8 °F 54% 29.55 in 10.0 mi Calm Calm - N/A Thunderstorm Scattered Clouds
3:54 PM 77.0 °F - 61.0 °F 58% 29.54 in 10.0 mi Calm Calm - N/A Thunderstorm Mostly Cloudy
4:50 PM 69.8 °F - 60.8 °F 73% 29.59 in 10.0 mi Variable 3.5 mph - 0.00 in   Overcast
4:54 PM 70.0 °F - 61.0 °F 73% 29.59 in 10.0 mi Variable 4.6 mph - 0.00 in   Overcast
5:54 PM 70.0 °F - 64.0 °F 81% 29.59 in 2.5 mi Calm Calm - 0.03 in Rain Light Rain
6:04 PM 69.8 °F - 64.4 °F 83% 29.60 in 10.0 mi Calm Calm - 0.00 in Rain Light Rain
6:37 PM 69.8 °F - 64.4 °F 83% 29.61 in 1.8 mi Variable 3.5 mph - 0.05 in Rain Heavy Rain
6:47 PM 68.0 °F - 64.4 °F 88% 29.61 in 3.0 mi SSW 3.5 mph - 0.07 in Rain Light Rain
6:54 PM 66.9 °F - 64.0 °F 90% 29.61 in 6.0 mi Calm Calm - 0.07 in Rain Light Rain
7:54 PM 68.0 °F - 64.9 °F 90% 29.63 in 10.0 mi NNE 3.5 mph - 0.01 in   Overcast
8:03 PM 66.2 °F - 64.4 °F 94% 29.64 in 10.0 mi NNE 3.5 mph - N/A   Overcast
8:08 PM 66.2 °F - 64.4 °F 94% 29.64 in 1.8 mi Calm Calm - 0.07 in Rain Heavy Rain
8:16 PM 66.2 °F - 64.4 °F 94% 29.65 in 2.5 mi Calm Calm - 0.10 in Rain Light Rain
8:27 PM 66.2 °F - 64.4 °F 94% 29.66 in 1.2 mi Calm Calm - 0.18 in Rain Rain
8:37 PM 66.2 °F - 64.4 °F 94% 29.66 in 3.0 mi Calm Calm - 0.21 in Rain Rain
8:54 PM 66.0 °F - 64.0 °F 93% 29.66 in 6.0 mi Calm Calm - 0.26 in Rain Light Rain
9:54 PM 64.9 °F - 64.0 °F 97% 29.68 in 10.0 mi Calm Calm - 0.00 in   Overcast
10:54 PM 64.0 °F - 63.0 °F 96% 29.69 in 9.0 mi Calm Calm - 0.01 in   Mostly Cloudy
11:19 PM 64.4 °F - 62.6 °F 94% 29.69 in 7.0 mi Calm Calm - N/A   Overcast
11:30 PM 64.4 °F - 62.6 °F 94% 29.69 in 9.0 mi Calm Calm - N/A   Overcast
11:54 PM 64.0 °F - 62.1 °F 93% 29.70 in 8.0 mi Calm Calm - N/A   Overcast